Miscellaneous Local Product
Issued by NWS North Platte, NE

Home | Current Version | Previous Version | Text Only | Print | Product List | Glossary On
Versions: 1 2 3 4 5 6 7 8 9 10 11 12 13 14 15 16 17 18 19 20 21 22 23 24 25 26 27 28 29 30 31 32 33 34 35 36 37 38 39 40 41 42 43 44 45 46 47 48 49 50
000
AXUS43 KLBF 220210
MISLBF


WESTERN AND NORTH CENTRAL NEBRASKA HOURLY WEATHER ROUNDUP
NATIONAL WEATHER SERVICE NORTH PLATTE NE
900 PM CDT SAT APR 21 2018

NOTE: "FAIR" INDICATES FEW OR NO CLOUDS BELOW 12,000 FEET WITH NO
SIGNIFICANT WEATHER AND/OR OBSTRUCTIONS TO VISIBILITY.

NOTE: STATIONS NOT REPORTING VARIABLES SUCH AS SKY/WEATHER OR
PRESSURE ARE PROVIDED BY RAWS AND APRS NETWORKS AND ARE NOT UNDER
NATIONAL WEATHER SERVICE QUALITY CONTROL.

...OBSERVATIONS IN AND NEAR THE EASTERN PANHANDLE OF NEBRASKA...

CITY           SKY/WX    TMP DP  RH WIND       PRES   REMARKS
PINE RIDGE     PTCLDY    42  37  82 SE8       30.18R
GORDON         CLOUDY    42  37  82 SE7       30.19S
CHADRON        CLEAR     41  36  82 S10       30.17R
ALLIANCE       CLOUDY    40  37  89 SE12      30.19R WCI  33
SIDNEY         CLOUDY    40  33  76 SE7       30.20R
CRESCENT LAKE    N/A     40  38  91 SE5         N/A
$$

...OBSERVATIONS IN NORTHERN NEBRASKA AND FAR SOUTHERN SOUTH DAKOTA...

CITY           SKY/WX    TMP DP  RH WIND       PRES   REMARKS
WINNER         CLOUDY    42  35  76 E6        30.26R
VALENTINE      CLOUDY    46  37  71 SE5       30.24R
AINSWORTH      CLOUDY    41  37  87 E5        30.24S
O`NEILL        CLOUDY    45  38  75 CALM      30.26S
THEDFORD       CLOUDY    43  37  79 SE10      30.24R
BROKEN BOW     CLOUDY    43  38  82 CALM      30.24R
ORD            CLOUDY    44  37  76 NE6       30.25R
ALBION         DRIZZLE   46  37  70 NE8       30.26R
VALENTINE NWR    N/A     43  35  74 SE7         N/A
HALSEY           N/A     42  37  83 E6          N/A
BUTTE            N/A     41  38  89 E3          N/A
CHAMBERS         N/A     42  34  73 CALM        N/A
EWING            N/A     44  38  78 CALM        N/A
$$

...OBSERVATIONS IN SOUTHWEST NEBRASKA AND FAR NORTHEAST COLORADO...

CITY           SKY/WX    TMP DP  RH WIND       PRES   REMARKS
WRAY           CLOUDY    41  37  87 SE3       30.24R
HOLYOKE        CLOUDY    41  37  87 E7        30.23R
IMPERIAL       CLOUDY    41  39  93 CALM      30.24R
OGALLALA       CLOUDY    42  39  91 CALM      30.23S
NORTH PLATTE   CLOUDY    43  37  79 SE7       30.23S
MCCOOK         CLOUDY    42  41  96 CALM      30.23S
LEXINGTON      CLOUDY    43  39  86 E5        30.25R
STAPLETON        N/A     41  37  86 CALM        N/A
GOTHENBURG       N/A     43  37  79 E5          N/A
CALLAWAY         N/A     42  38  87 E5          N/A
$$

...OBSERVATIONS IN CENTRAL LINCOLN COUNTY AREA...

CITY           SKY/WX    TMP DP  RH WIND       PRES   REMARKS
N.P. AIRPORT   CLOUDY    43  37  79 SE7       30.23S
N.P. DOWNTOWN    N/A     43  38  82 CALM        N/A
N.P. SOUTHEAST   N/A     42  37  82 E3          N/A
N.P. HILLCREST   N/A     42  37  83 E6          N/A
$$

...OBSERVATIONS ACROSS THE ROCKIES AND WESTERN HIGH PLAINS...

CITY           SKY/WX    TMP DP  RH WIND       PRES   REMARKS
RAPID CITY     CLEAR     44  36  73 S16       30.12S
SCOTTSBLUFF    PTCLDY    41  38  89 E9        30.17R
CHEYENNE       MOCLDY    37  35  92 SW13      30.15S WCI  29
DENVER         CLOUDY    38  35  89 S6        30.18S WCI  33
BERTHOUD PASS  CLOUDY    21  10  63 NW25G41   30.25S WCI   4
MONARCH PASS     N/A     23  23 100 NW18      30.41S WCI   9
ASPEN          PTCLDY    39  33  79 SE6       30.25S WCI  35
STEAMBOAT      FAIR      43  34  72 CALM      30.20R
LARAMIE        CLEAR     36  33  89 SE5       30.12S WCI  32
CASPER         CLEAR     53  39  59 E10       30.05R
$$

...OBSERVATIONS ACROSS THE NORTHERN PLAINS...

CITY           SKY/WX    TMP DP  RH WIND       PRES   REMARKS
BISMARCK       CLEAR     50  36  58 S12       30.16S
FARGO          FAIR      54  43  66 SE10      30.25S
PIERRE         PTCLDY    43  38  82 SE13      30.21F
SIOUX FALLS    CLOUDY    43  35  73 E7        30.30R
$$

...OBSERVATIONS ACROSS THE CENTRAL AND SOUTHERN PLAINS...

CITY           SKY/WX    TMP DP  RH WIND       PRES   REMARKS
OMAHA          CLOUDY    53  31  42 NE12      30.24S
GRAND ISLAND   CLOUDY    44  38  79 NE6       30.24S
KANSAS CITY    CLOUDY    58  28  32 E12       30.14R
WICHITA        LGT RAIN  46  45  96 N10       30.14R
DODGE CITY     CLOUDY    44  42  93 NE10      30.19R FOG
OKLAHOMA CITY  CLOUDY    47  46  97 N10       30.08R FOG
DALLAS         CLOUDY    58  58 100 NW20      29.96R
AMARILLO       PTCLDY    44  41  89 N8        30.18R
$$




USA.gov is the U.S. government's official web portal to all federal, state and local government web resources and services.